Cosmos 1689 Rocket - Orbit

View from above orbital plane
View from above orbital plane
View from above satellite
View from above satellite

Ground track
Ground track

The orbit data is extracted from the following two-line orbital elements,

1 16111U 85090B   13144.49999425  .00006287  00000-0  23525-3 0  1597
2 16111 097.4246 222.2666 0028095 335.1392 024.8491 15.27301084515730
Epoch (UTC): 24 May 2013 11:59:59
Eccentricity: 0.0028095
inclination: 97.4246°
perigee height: 464 km
apogee height: 503 km
right ascension of ascending node: 222.2666°
argument of perigee: 335.1392°
revolutions per day: 15.27301084
mean anomaly at epoch: 24.8491°
orbit number at epoch: 51573

The dashed part of the orbit path shows where the satellite is in the earth's shadow,  

Developed and maintained by Chris Peat, Heavens-Above GmbH. Please read the updated FAQ before sending e-mail. Imprint. DLR